GPS BIIR-2 (PRN 13) (24876 NORAD) Tracking and Keplerian Element Data

This shows tracking and keplerian element data for the satellite.

Feedback or suggestion? Click here.




ElementValue
Catalog24876
NameGPS BIIR-2 (PRN 13)
Epoch Orbit19691
Epoch Day159.30614849
Epoch Year2024
RAAN127.5182
Inclination55.6681
Eccentricity0.0079414
Argument of Perigee52.0073
Mean Anonmoly308.6624
Mean Motion2.00565511
Decay Rate5E-08
L11 24876U 97035A 24159.30614849 .00000005 00000+0 00000+0 0 9990
L22 24876 55.6681 127.5182 0079414 52.0073 308.6624 2.00565511196918



Live tracking and technical data element details for GPS BIIR-2 (PRN 13) (NORAD 24876). GPS BIIR-2 (PRN 13) can be tracked NOW for your location showing map with azimuth and elevation plus other details from your city location.







IsCatalogInMostPopularTable: catalog: 24876, numindb: 654
Update: records affected: 1



GetName: 24876 GPS BIIR-2 (PRN 13)

Hit Count: updated at: Mon, 17 Jun 2024 23:44:12 GMT